284P/McNaught (2014)

Japanese version
Home page
Updated on February 27, 2017

---------------------------------------------------------------------

* Profile

Designation 284P/2013 J1
Recovery Date May 1, 2013
Magnitude 21.1 mag
Recoverer J. V. Scotti (Spacewatch, Kitt Peak)

* Pictures

* Orbital Elements

Epoch 2014 Sept. 20.0 TT = JDT 2456920.5
T 2014 Sept. 2.49264 TT                                 MPCW
q   2.2894596            (2000.0)            P               Q
n   0.13998670     Peri.  202.86273     +0.97013514     +0.21081372
a   3.6734844      Node   144.29311     -0.17836785     +0.95521138
e   0.3767608      Incl.   11.86308     -0.16438587     +0.20767473
P   7.04
From 1642 observations 2007 Apr. 17-2015 Feb. 12, mean residual 0".5.

* Finding Charts

* Magnitudes Graph

        m1 = 7.0 + 5 log d + 20.0 log r

---------------------------------------------------------------------

The orbital elements are published on M.P.E.C. 2015-G03.
The charts are made with StellaNavigator Ver.8 (AstroArts).
The magnitudes graphs are made with Comet for Windows.

---------------------------------------------------------------------

Copyright(C) Seiichi Yoshida (comet@aerith.net). All rights reserved.